Weather Roundup
Issued by NWS Chicago, IL

Home | Current Version | Previous Version | Text Only | Print | Product List | Glossary Off
Versions: 1 2 3 4 5 6 7 8 9 10 11 12 13 14 15 16 17 18 19 20 21 22 23 24 25 26 27 28 29 30 31 32 33 34 35 36 37 38 39 40 41 42 43 44 45 46 47 48 49 50

000
NZUS59 KLOT 191703
HRRLOT

CHICAGO AREA WEATHER ROUNDUP
NATIONAL WEATHER SERVICE CHICAGO/ROMEOVILLE IL
1100 AM CST MON FEB 19 2018

NOTE: "FAIR" INDICATES FEW OR NO CLOUDS BELOW 12,000 FEET WITH NO
SIGNIFICANT WEATHER AND/OR OBSTRUCTIONS TO VISIBILITY.

* THESE STATIONS ARE NOT UNDER NWS QUALITY CONTROL. THEY ALSO MAY NOT
  REPORT WEATHER SUCH AS PRECIPITATION OR FOG.

ILZ005-006-012>014-019>023-191800-
NORTHEAST ILLINOIS

CITY           SKY/WX    TMP DP  RH WIND       PRES   REMARKS
OHARE          CLOUDY    44  42  93 SE7       29.81F FOG
MIDWAY         RAIN      46  45  96 SE7       29.82F FOG
AURORA         LGT RAIN  41  41 100 SE8       29.80F VSB 1/2
LANSING*       LGT RAIN  44  44 100 SE6       29.84F VSB 1
JOLIET*        DRIZZLE   44  44 100 SE6       29.81F
WAUKEGAN       LGT RAIN  40  40 100 NE3       29.82F VSB 1
DUPAGE AIRPORT FOG       43  43 100 SE9       29.80F VSB 1/2
WHEELING       CLOUDY    45  45 100 SE3       29.83F FOG
KANKAKEE*      RAIN      51  51  97 S12G18    29.84S
MORRIS*        LGT RAIN  43  43  99 SE7       29.79F VSB<1/4
LEWIS AIRPORT* DRZL/FOG  41  41 100 SE9       29.81F VSB 1/4
NORTHERLY ISL    N/A     39  37  92 SE1         N/A
$$

WIZ051-052-058>065-066-070>072-191800-
SOUTHEAST WISCONSIN

CITY           SKY/WX    TMP DP  RH WIND       PRES   REMARKS
MILWAUKEE      LGT RAIN  42  40  92 CALM      29.84F FOG
KENOSHA*       LGT RAIN  43  40  89 NE5       29.82F FOG
RACINE*        LGT RAIN  40  39  97 CALM      29.85F VSB 1
BURLINGTON     MIX PCPN  39  38  95 E3        29.82F
WAUKESHA       DRIZZLE   37  36  93 CALM      29.86R
WEST BEND      CLOUDY    39  36  87 E5        29.87S
$$

INZ001>003-010>013-019-020-191800-
NORTHWEST INDIANA

CITY           SKY/WX    TMP DP  RH WIND       PRES   REMARKS
GARY*          LGT RAIN  46  46 100 SE8       29.84F FOG
MICHIGAN CITY* NOT AVBL
RENSSELAER*    NOT AVBL
VALPARAISO     LGT RAIN  48  48 100 S7        29.86F VSB 1/4
$$

LMZ740>746-191800-
SOUTHERN LAKE MICHIGAN

STATION/POSITION TIME  SKY/WX   TEMP WIND        PRES    VSBY
                                AIR  DIR/SP/G
                 (UTC)          (F)  (DEG/KT/KT) (MB)    (MI)
HARRISON CRIB    1640            43  140/ 13/ 13   N/A
BURNHAM HARBOR   1700            39   CALM  /  3   N/A
CALUMET HARBOR   1630            44  150/  5/  7 1009.8F
BURNS HARBOR     1640            48  170/ 10/ 15 1011.2F
MICHIGAN CITY    1640            47  150/ 12/ 14   N/A
$$

ABBREVIATIONS USED IN REMARKS
   TC - TEMPERATURE IN CELSIUS
  WCI - WIND CHILL INDEX
   HX - HEAT INDEX
  VSB - VISIBILITY
$$



USA.gov is the U.S. government's official web portal to all federal, state and local government web resources and services.